TEN-KOH

Satellite information

Favourite Embed

Satellite Type and Status

PAYLOADIN ORBIT

Key statistics

Satellite TEN-KOH at a glance.

Uptime

2557

Days in orbit

Revolutions

≈ 15.0

Per day

Orbit

SSO

Sun Synchronous Orbit

Inclination

98.1

Latest

Satellite identification and parameters

Extended collection of information and parameters for TEN-KOH.

Object identification

Identified? True

Debris? False

Object name: TEN-KOH

International designator: 2018-084G

Object number (NORAD): 43677

Object ID (CCSDS): 43677

Country: JAPAN (JPN)

Current information (Y/N): Y

RCS size: MEDIUM

Orbital parameters

Period: 95.913 minutes

Inclination: 98.0692 deg

SMA: 6940.825 km

Apoapsis: 569.187 km

Periapsis: 556.194 km

RAAN: 118.6712 deg

Eccentricy: 0.000936

Argument of periapsis: 156.5884 deg

Mean anomaly: 203.5767 deg

Mean motion: 15.01364365 rev/day

Mean motion (dot): 0.00003837 rev/day2

B* drag term: 0.0003025239 1/REarth

Two-line elements (TLE)

Creation date: Oct. 28, 2025, 2:18 a.m.

Reference frame: TEME

Reference center: EARTH

Epoch: Oct. 27, 2025, 8:45 p.m. UTC

TLE line 0: 0 TEN-KOH

TLE line 1: 1 43677U 18084G 25300.86506683 .00003837 00000-0 30252-3 0 9996

TLE line 2: 2 43677 98.0692 118.6712 0009360 156.5884 203.5767 15.01364365381280

Live tracking on map

Real-time ground track for satellite TEN-KOH.

In-orbit conjunctions

There are no conjunctions computed for TEN-KOH, at the moment. Check back to stay up to date, as we update our databases every day.

Go to all conjunctions

Associated space launch

KhalifaSat is an Earth observation satellite for UAE. KhalifaSat will provide high-resolution imagery of Earth to be used for various purposes, including urban planning, change monitoring, area classification, monitoring environmental change and aiding relief efforts for natural disasters. GOSAT 2 (Greenhouse gases Observing SATellite 2) is a Japanese satellite dedicated to greenhouse gas measurement from space. It's a follow on to the GOSAT mission and includes such improvements as an ability to gather more precise data and monitor carbon monoxide concentrations.

TEN-KOH was lifted into orbit during the mission ‘H-IIA 202 | KhalifaSat & GOSAT-2’, on board a H-IIA space rocket.

The launch took place on Oct. 29, 2018, 4:08 a.m. from Yoshinobu Launch Complex LP-1.

For more information about the launch, click the button.

Launch to space H-IIA 202 | KhalifaSat & GOSAT-2
H-IIA 202 | KhalifaSat & GOSAT-2

Agency: N/A

Status: Launch Successful

Launch date: Oct. 29, 2018, 4:08 a.m. UTC

Rocket: H-IIA

Launch pad: Yoshinobu Launch Complex LP-1

Location: Tanegashima Space Center, Japan

...

Latest news about this satellite

News about space launch
Japan Launches UAE's KhalifaSat and Climate-Monitoring Satellite Into Orbit


Newsletter sign-up

Weekly statistics, charts and insights to help you stay on top of the space industry.